Regional Weather Roundup
Issued by NWS Huntsville, AL

Home | Current Version | Previous Version | Text Only | Print | Product List | Glossary On
Versions: 1 2 3 4 5 6 7 8 9 10 11 12 13 14 15 16 17 18 19 20 21 22 23 24 25 26 27 28 29 30 31 32 33 34 35 36 37 38 39 40 41 42 43 44 45 46 47 48 49 50
000
ASUS44 KHUN 252210
RWRHUN

WEATHER ROUNDUP FOR THE TENNESSEE VALLEY
NATIONAL WEATHER SERVICE HUNTSVILLE AL
500 PM CDT WED MAY 25 2016

ALZ001>004-252300-
NORTHWEST ALABAMA

CITY           SKY/WX    TMP DP  RH WIND       PRES   REMARKS
SHOALS AIRPORT PTSUNNY   87  55  33 S13       30.10S
$$

ALZ005>007-016-252300-
NORTH CENTRAL ALABAMA

CITY           SKY/WX    TMP DP  RH WIND       PRES   REMARKS
DECATUR AP     SUNNY     86  58  38 S12       30.10F
HUNTSVILLE AP  PTSUNNY   89  55  31 S15       30.10F
HUN NWS/UAH      N/A     87  55  33 S8          N/A
MERIDIANVILLE  CLOUDY    88  45  22 S12       30.11S
REDSTONE ARSN  SUNNY     86  58  38 SW12      30.09F
VINEMONT AP    FAIR      86  57  37 S10G17    30.14F
$$

ALZ008>010-252300-
NORTHEAST ALABAMA

CITY           SKY/WX    TMP DP  RH WIND       PRES   REMARKS
ALBERTVILLE    SUNNY     86  64  48 SE8       30.13F
FORT PAYNE     SUNNY     82  52  34 S7        30.13F
SCOTTSBORO AP  MOSUNNY   84  59  42 S8        30.12F
VALLEY HEAD      N/A     82 N/A N/A MISG        N/A
$$

TNZ076-096-097-252300-
SOUTHEASTERN MIDDLE TENNESSEE

CITY           SKY/WX    TMP DP  RH WIND       PRES   REMARKS
TULLAHOMA      MOSUNNY   82  57  42 S7        30.13F
WINCHESTER     MOSUNNY   86  57  37 S7        30.13S
$$

...SURROUNDING SITES...

CITY           SKY/WX    TMP DP  RH WIND       PRES   REMARKS
ATLANTA        MOSUNNY   85  53  33 S9G21     30.17F
ANNISTON       SUNNY     87  52  29 S8        30.14F
BIRMINGHAM     PTSUNNY   88  58  36 S13G21    30.14F
CHATTANOOGA    PTSUNNY   87  54  32 S10       30.12F
DALTON         SUNNY     86  54  32 SE7       30.14F
GADSDEN        SUNNY     87  57  35 SW7       30.13F
GOLDEN TRNGL   MOSUNNY   86  59  39 S12       30.09F
HALEYVILLE     FAIR      83  60  45 S12       30.14S
JACKSON TN     LGT RAIN  67  64  90 SE9       30.08F
MEMPHIS        CLOUDY    69  64  84 S5        30.02F THUNDER
NASHVILLE      CLOUDY    84  61  45 SE5       30.10R
OXFORD MS      FAIR      82  66  57 S3        30.09R
ROME           SUNNY     87  52  29 VRB7      30.13F
SAVANNAH       SUNNY     84  54  34 S10       30.08R
TUPELO         MOSUNNY   87  63  44 SE14      30.07F
TUSCALOOSA     MOSUNNY   86  62  44 S9        30.11F
$$

...GULF COAST WEATHER...

CITY           SKY/WX    TMP DP  RH WIND       PRES   REMARKS
GULFPORT       SUNNY     82  67  60 SE16      30.12F
PASCAGOULA     SUNNY     82  64  54 S12       30.13F
MOBILE         PTSUNNY   84  61  45 SE12      30.15F
GULF SHORES    CLEAR     80  68  67 S8G18     30.15F
DESTIN         MOSUNNY   84  74  71 SE9       30.15F HX  91
PANAMA CITY    CLOUDY    81  72  72 S13       30.15F
APPALACHICOLA  CLOUDY    81  73  76 SE8       30.16F
$$




USA.gov is the U.S. government's official web portal to all federal, state and local government web resources and services.